Weather History for KDHT - October, 2013

Change the Weather History Date:

Monday, October 14, 2013

  Actual Average Record
Temperature  
Mean Temperature 64 °F 56 °F  
Max Temperature 80 °F 72 °F 91 °F (1989)
Min Temperature 48 °F 41 °F 29 °F (1969)
Degree Days  
Heating Degree Days 1 9  
Month to date heating degree days 62 98  
Since 1 July heating degree days 76 161  
Cooling Degree Days 0 0  
Month to date cooling degree days 13 8  
Year to date cooling degree days 1576 1136  
Growing Degree Days 16 (Base 50)    
Moisture  
Dew Point 48 °F    
Average Humidity 56    
Maximum Humidity 100    
Minimum Humidity 12    
Precipitation  
Precipitation T in 0.05 in 1.67 in (2008)
Month to date precipitation T 0.66  
Year to date precipitation 6.66 15.66  
Snow  
Snow 0.00 in 0.00 in 0.00 in ()
Month to date snowfall 0.0 0.1  
Since 1 July snowfall 0.0 0.1  
Since 1 September snowfall 0.0 0.1  
Snow Depth 0.00 in    
Sea Level Pressure  
Sea Level Pressure 29.95 in    
Wind  
Wind Speed 17 mph (SSW)    
Max Wind Speed 37 mph    
Max Gust Speed 45 mph    
Visibility 8 miles    
Events Rain    
T = Trace of Precipitation, MM = Missing Value Source: NWS Daily Summary

Daily Weather History Graph

Daily Weather History Graph

Search for Another Location

Airport or City:

Trip Planner

Search our weather history database for the weather conditions in past years. The results will help you decide how hot, cold, wet, or windy it might be!

Date:

Astronomy

Oct. 14, 2013 Rise Set
Actual Time 7:56 AM CDT 7:15 PM CDT
Civil Twilight 7:30 AM CDT 7:41 PM CDT
Nautical Twilight 7:00 AM CDT 8:10 PM CDT
Astronomical Twilight 6:31 AM CDT 8:40 PM CDT
Moon 4:39 PM CDT (10/14) 3:23 AM CDT (10/14)
Length of Visible Light 12h 10m
Length of Day
11h 18m
Waxing Gibbous, 79% of the Moon is Illuminated
Oct 14
Waxing Gibbous
Oct 18
Full
Oct 26
Last Quarter
Nov 3
New
Nov 9
First Quarter

Hourly Weather History & Observations

Time (CDT) Temp. Dew Point Humidity Pressure Visibility Wind Dir Wind Speed Gust Speed Precip Events Conditions
12:26 AM 57.2 °F 53.6 °F 88% 30.14 in 10.0 mi South 20.7 mph - N/A   Overcast
12:53 AM 57.9 °F 54.0 °F 87% 30.03 in 10.0 mi South 16.1 mph - N/A   Overcast
1:23 AM 57.2 °F 55.4 °F 94% 30.12 in 10.0 mi South 16.1 mph - N/A   Overcast
1:34 AM 57.2 °F 55.4 °F 94% 30.11 in 10.0 mi South 17.3 mph - N/A   Mostly Cloudy
1:53 AM 57.9 °F 55.0 °F 90% 30.02 in 10.0 mi South 16.1 mph - N/A   Overcast
2:17 AM 57.2 °F 55.4 °F 94% 30.12 in 10.0 mi SSE 17.3 mph - N/A   Overcast
2:53 AM 57.9 °F 55.9 °F 93% 30.01 in 5.0 mi South 15.0 mph - N/A   Overcast
3:31 AM 57.2 °F 55.4 °F 94% 30.09 in 3.0 mi South 13.8 mph - N/A   Overcast
3:53 AM 57.9 °F 57.0 °F 97% 29.97 in 2.5 mi SSE 15.0 mph - N/A   Overcast
4:01 AM 57.2 °F 57.2 °F 100% 30.07 in 4.0 mi South 13.8 mph - N/A   Overcast
4:17 AM 59.0 °F 57.2 °F 94% 30.05 in 2.0 mi SSE 13.8 mph - N/A   Overcast
4:28 AM 59.0 °F 57.2 °F 94% 30.05 in 2.5 mi SSE 15.0 mph - N/A   Overcast
4:53 AM 59.0 °F 57.9 °F 96% 29.93 in 2.5 mi South 16.1 mph - N/A   Overcast
5:05 AM 60.8 °F 57.2 °F 88% 30.03 in 4.0 mi South 16.1 mph - N/A   Overcast
5:17 AM 60.8 °F 57.2 °F 88% 30.03 in 7.0 mi South 17.3 mph - N/A   Overcast
5:53 AM 60.1 °F 59.0 °F 96% 29.91 in 3.0 mi South 13.8 mph - N/A   Overcast
6:24 AM 60.8 °F 57.2 °F 88% 30.02 in 10.0 mi South 12.7 mph - N/A   Overcast
6:53 AM 61.0 °F 57.9 °F 90% 29.90 in 10.0 mi South 10.4 mph - N/A   Overcast
7:06 AM 60.8 °F 57.2 °F 88% 30.01 in 10.0 mi South 10.4 mph - N/A   Overcast
7:53 AM 61.0 °F 57.9 °F 90% 29.90 in 10.0 mi South 9.2 mph - N/A   Overcast
8:09 AM 60.8 °F 59.0 °F 94% 30.00 in 10.0 mi South 6.9 mph - 0.00 in Rain Light Rain
8:27 AM 60.8 °F 57.2 °F 88% 30.00 in 10.0 mi South 15.0 mph - 0.00 in Rain Light Rain
8:40 AM 60.8 °F 59.0 °F 94% 30.00 in 10.0 mi South 11.5 mph - 0.00 in   Overcast
8:53 AM 62.1 °F 59.0 °F 90% 29.89 in 10.0 mi South 13.8 mph - 0.00 in   Overcast
9:53 AM 63.0 °F 59.0 °F 87% 29.89 in 10.0 mi SSW 16.1 mph - N/A   Mostly Cloudy
10:53 AM 66.9 °F 59.0 °F 76% 29.87 in 10.0 mi SSW 17.3 mph - N/A   Clear
11:53 AM 73.0 °F 51.1 °F 46% 29.83 in 10.0 mi SW 21.9 mph 29.9 mph N/A   Partly Cloudy
12:53 PM 75.9 °F 46.0 °F 35% 29.79 in 10.0 mi WSW 23.0 mph 32.2 mph N/A   Clear
1:53 PM 79.0 °F 37.0 °F 22% 29.75 in 10.0 mi WSW 29.9 mph 38.0 mph N/A   Clear
2:53 PM 78.1 °F 25.0 °F 14% 29.73 in 10.0 mi WSW 27.6 mph 39.1 mph N/A   Clear
3:53 PM 77.0 °F 23.0 °F 13% 29.73 in 10.0 mi SW 28.8 mph 42.6 mph N/A   Clear
4:53 PM 75.9 °F 19.9 °F 12% 29.73 in 10.0 mi WSW 27.6 mph 34.5 mph N/A   Clear
5:53 PM 75.0 °F 19.9 °F 13% 29.74 in 10.0 mi SW 21.9 mph 32.2 mph N/A   Clear
6:53 PM 72.0 °F 21.0 °F 15% 29.76 in 10.0 mi West 11.5 mph - N/A   Clear
7:53 PM 63.0 °F 25.0 °F 24% 29.83 in 5.0 mi West 10.4 mph - N/A   Haze
8:53 PM 55.9 °F 28.0 °F 34% 29.87 in 8.0 mi West 6.9 mph - N/A   Clear
9:53 PM 55.0 °F 27.0 °F 34% 29.91 in 10.0 mi NW 4.6 mph - N/A   Clear
10:29 PM 55.4 °F 33.8 °F 44% 30.06 in 10.0 mi North 13.8 mph - N/A   Clear
10:53 PM 54.0 °F 36.0 °F 51% 29.96 in 10.0 mi NNE 15.0 mph - N/A   Clear
11:53 PM 51.1 °F 37.0 °F 59% 29.99 in 10.0 mi North 16.1 mph - N/A   Clear